DW5406 Weather Reports


Display with metric or nautical units.
time (UTC)temp
F
wind
direction
speed
MPH
gust
MPH
rain 1hr
in
rain 24hr
in
rain mn
in
humidity
%
barometer
mb
20260507014651 49 335 0.0 0.0 0.00 0.00 0.00 89 1008.4
20260507014140 49 335 0.0 0.0 0.00 0.00 0.00 89 1008.3
20260507013651 49 335 0.0 0.0 0.00 0.00 0.00 89 1008.3
20260507013143 49 335 0.0 0.0 0.00 0.00 0.00 89 1008.2
20260507012652 49 335 0.0 1.0 0.00 0.00 0.00 89 1008.2
20260507012144 49 335 0.0 1.0 0.00 0.00 0.00 89 1008.2
20260507011655 49 335 0.0 1.0 0.00 0.00 0.00 89 1008.2
20260507011144 49 335 0.0 1.0 0.00 0.00 0.00 89 1008.2
20260507010658 49 335 0.0 1.0 0.00 0.00 0.00 89 1008.1
20260507010145 49 335 0.0 1.0 0.00 0.00 0.00 88 1008.1
20260507005649 49 335 0.0 1.0 0.00 0.00 0.00 88 1008.2
20260507005139 49 335 0.0 0.0 0.00 0.00 0.00 88 1008.1
20260507004650 49 335 0.0 0.0 0.00 0.00 0.00 88 1008.1
20260507004142 49 335 0.0 2.0 0.00 0.00 0.00 88 1008.1
20260507003654 49 335 0.0 3.0 0.00 0.00 0.00 88 1008.1
20260507003143 49 335 0.0 1.0 0.00 0.00 0.00 88 1008.0
20260507002654 49 335 0.0 2.0 0.00 0.00 0.00 88 1008.0
20260507002144 49 335 0.0 2.0 0.00 0.00 0.00 88 1008.0
20260507001654 50 335 0.0 1.0 0.00 0.00 0.00 88 1008.0
20260507001145 50 335 0.0 1.0 0.00 0.00 0.00 88 1008.0
20260507000654 50 335 0.0 4.0 0.00 0.00 0.00 87 1008.0
20260507000145 50 335 0.0 4.0 0.00 0.00 0.00 87 1008.0
20260506235649 50 338 0.0 2.0 0.00 0.00 0.00 87 1008.0
20260506235140 50 338 0.0 1.0 0.00 0.00 0.00 87 1007.9
20260506234650 50 338 0.0 2.0 0.00 0.00 0.00 87 1007.9
20260506234144 50 338 0.0 2.0 0.00 0.00 0.00 87 1007.9
20260506233654 50 338 0.0 1.0 0.00 0.00 0.00 87 1007.8
20260506233144 50 338 0.0 2.0 0.00 0.00 0.00 87 1007.8
20260506232653 50 338 0.0 2.0 0.00 0.00 0.00 87 1007.8
20260506232144 50 338 0.0 2.0 0.00 0.00 0.00 87 1007.8
20260506231655 50 339 0.0 1.0 0.00 0.00 0.00 87 1007.7
20260506231145 50 341 0.0 1.0 0.00 0.00 0.00 87 1007.7
20260506230656 50 341 0.0 1.0 0.00 0.00 0.00 87 1007.7
20260506230145 50 341 0.0 1.0 0.00 0.00 0.00 87 1007.6
20260506225650 50 341 0.0 0.0 0.00 0.00 0.00 87 1007.6
20260506225141 50 341 0.0 1.0 0.00 0.00 0.00 87 1007.6
20260506224651 50 341 0.0 1.0 0.00 0.00 0.00 86 1007.5
20260506224140 50 342 0.0 1.0 0.00 0.00 0.00 86 1007.5
20260506223650 50 342 0.0 1.0 0.00 0.00 0.00 86 1007.5
20260506223141 50 341 0.0 1.0 0.00 0.00 0.00 86 1007.4
20260506222142 50 311 0.0 0.0 0.00 0.00 0.00 86 1007.3
20260506221652 50 310 0.0 1.0 0.00 0.00 0.00 86 1007.3
20260506221142 50 311 0.0 1.0 0.00 0.00 0.00 86 1007.3
20260506220506 50 311 0.0 1.0 0.00 0.00 0.00 86 1007.3
20260506215645 50 311 0.0 0.0 0.00 0.00 0.00 86 1007.3
20260506215156 50 311 0.0 1.0 0.00 0.00 0.00 86 1007.2
20260506214646 51 311 0.0 2.0 0.00 0.00 0.00 86 1007.2
20260506214156 51 311 0.0 2.0 0.00 0.00 0.00 86 1007.2
20260506213646 51 311 0.0 1.0 0.00 0.00 0.00 86 1007.2
20260506213157 51 311 0.0 2.0 0.00 0.00 0.00 86 1007.1
20260506212650 51 311 0.0 4.0 0.00 0.00 0.00 86 1007.0
20260506212140 51 311 0.0 4.0 0.00 0.00 0.00 86 1007.0
20260506211649 51 315 0.0 3.0 0.00 0.00 0.00 86 1007.0
20260506211141 51 317 0.0 2.0 0.00 0.00 0.00 86 1006.9
20260506210651 51 318 0.0 2.0 0.00 0.00 0.00 86 1007.0
20260506210159 51 319 0.0 2.0 0.00 0.00 0.00 86 1006.9
20260506205644 51 319 0.0 1.0 0.00 0.00 0.00 86 1006.9
20260506205154 51 319 0.0 2.0 0.00 0.00 0.00 87 1006.9
20260506204648 51 319 0.0 4.0 0.00 0.00 0.00 87 1006.7
20260506204141 51 24 0.0 1.0 0.00 0.00 0.00 87 1006.7
20260506203650 51 24 0.0 2.0 0.00 0.00 0.00 87 1006.7
20260506203141 51 24 0.0 2.0 0.00 0.00 0.00 87 1006.7
20260506202651 52 26 0.0 1.0 0.00 0.00 0.00 87 1006.6
20260506202141 52 27 0.0 1.0 0.00 0.00 0.00 87 1006.6
20260506201653 52 28 0.0 4.0 0.00 0.00 0.00 87 1006.5
20260506201147 52 28 0.0 4.0 0.00 0.00 0.00 87 1006.5
20260506200655 52 316 0.0 2.0 0.00 0.00 0.00 87 1006.4
20260506200145 52 316 0.0 2.0 0.00 0.00 0.00 87 1006.3
20260506195649 52 316 0.0 1.0 0.00 0.00 0.00 87 1006.2
20260506195157 52 317 0.0 2.0 0.00 0.00 0.00 87 1006.2
20260506194648 52 318 0.0 2.0 0.00 0.00 0.00 87 1006.2
20260506194139 52 318 0.0 1.0 0.00 0.00 0.00 88 1006.0
20260506193649 52 318 0.0 1.0 0.00 0.00 0.00 88 1005.9
20260506193140 52 320 0.0 3.0 0.00 0.00 0.00 88 1005.9
20260506192651 52 320 0.0 3.0 0.00 0.00 0.00 88 1005.9
20260506192141 52 320 0.0 1.0 0.00 0.00 0.00 88 1005.8
20260506191651 52 320 0.0 1.0 0.00 0.00 0.00 88 1005.7
20260506191142 53 320 0.0 1.0 0.00 0.00 0.00 88 1005.7
20260506190502 53 320 0.0 1.0 0.00 0.00 0.00 88 1005.7
20260506190203 53 320 0.0 1.0 0.00 0.00 0.00 87 1005.7
20260506185644 53 320 0.0 2.0 0.00 0.00 0.00 88 1005.6
20260506185155 53 320 0.0 2.0 0.00 0.00 0.00 87 1005.5
20260506184645 54 320 0.0 1.0 0.00 0.00 0.00 87 1005.5
20260506184141 54 320 0.0 1.0 0.00 0.00 0.00 87 1005.5
20260506183651 54 320 0.0 3.0 0.00 0.00 0.00 87 1005.4
20260506183142 54 320 0.0 3.0 0.00 0.00 0.00 87 1005.3
20260506182652 54 26 0.0 5.0 0.00 0.00 0.00 87 1005.1
20260506182141 54 26 0.0 5.0 0.00 0.00 0.00 87 1005.1
20260506181652 54 24 0.0 2.0 0.00 0.00 0.00 87 1005.0
20260506181142 55 24 0.0 2.0 0.00 0.00 0.00 87 1005.0
20260506180503 55 24 0.0 5.0 0.00 0.00 0.00 86 1004.9
20260506175650 55 321 0.0 2.0 0.00 0.00 0.00 86 1004.7
20260506175156 56 321 0.0 2.0 0.00 0.00 0.00 86 1004.7
20260506174647 56 318 0.0 2.0 0.00 0.00 0.00 86 1004.7
20260506174201 56 318 0.0 2.0 0.00 0.00 0.00 86 1004.6
20260506173648 56 318 0.0 4.0 0.00 0.00 0.00 86 1004.5
20260506173141 57 318 0.0 4.0 0.00 0.00 0.00 85 1004.5
20260506172649 57 265 0.0 4.0 0.00 0.00 0.00 85 1004.4
20260506172141 57 265 0.0 4.0 0.00 0.00 0.00 85 1004.4
20260506171651 57 263 0.0 4.0 0.00 0.00 0.00 85 1004.3
20260506171144 57 263 0.0 4.0 0.00 0.00 0.00 84 1004.2
20260506170505 57 263 0.0 4.0 0.00 0.00 0.00 84 1004.1
20260506165647 58 261 1.0 8.0 0.00 0.00 0.00 83 1004.1
20260506165156 58 239 0.0 8.0 0.00 0.00 0.00 83 1004.0
20260506164645 58 276 1.0 3.0 0.00 0.00 0.00 83 1004.0
20260506164155 58 276 0.0 3.0 0.00 0.00 0.00 83 1004.0
20260506163644 58 277 0.0 3.0 0.00 0.00 0.00 83 1004.0
20260506163157 59 277 0.0 5.0 0.00 0.00 0.00 83 1004.0
20260506162647 59 279 1.0 5.0 0.00 0.00 0.00 83 1003.9
20260506162200 59 246 1.0 5.0 0.00 0.00 0.00 83 1003.9
20260506161646 59 229 0.0 5.0 0.00 0.00 0.00 83 1003.9
20260506161156 59 227 0.0 5.0 0.00 0.00 0.00 83 1003.8
20260506160648 59 227 0.0 3.0 0.00 0.00 0.00 83 1003.8
20260506160159 59 227 0.0 3.0 0.00 0.00 0.00 83 1003.8
20260506155643 59 227 0.0 1.0 0.00 0.00 0.00 83 1003.8
20260506155153 59 227 0.0 1.0 0.00 0.00 0.00 83 1003.8
20260506154644 59 227 0.0 2.0 0.00 0.00 0.00 83 1003.8
20260506154156 59 227 0.0 3.0 0.00 0.00 0.00 83 1003.7
20260506153644 60 227 0.0 4.0 0.00 0.00 0.00 83 1003.8
20260506153155 60 226 0.0 6.0 0.00 0.00 0.00 83 1003.7
20260506152646 60 229 2.0 5.0 0.00 0.00 0.00 83 1003.7
20260506152154 60 232 0.0 4.0 0.00 0.00 0.00 82 1003.7
20260506151645 61 232 1.0 6.0 0.00 0.00 0.00 82 1003.7
20260506151157 61 231 1.0 5.0 0.00 0.00 0.00 82 1003.6
20260506150646 61 282 0.0 4.0 0.00 0.00 0.00 82 1003.6
20260506150156 61 282 1.0 5.0 0.00 0.00 0.00 83 1003.5
20260506145639 60 238 0.0 5.0 0.00 0.00 0.00 83 1003.5
20260506145149 60 239 0.0 4.0 0.00 0.00 0.00 83 1003.4
20260506144641 60 240 0.0 5.0 0.00 0.00 0.00 83 1003.5
20260506144154 60 240 0.0 7.0 0.00 0.00 0.00 83 1003.5
20260506143644 60 238 1.0 7.0 0.00 0.00 0.00 83 1003.5
20260506143155 60 269 0.0 3.0 0.00 0.00 0.00 83 1003.4
20260506142646 60 269 0.0 3.0 0.00 0.00 0.00 82 1003.4
20260506142140 60 267 0.0 7.0 0.00 0.00 0.00 81 1003.5
20260506141650 61 267 1.0 7.0 0.00 0.00 0.00 79 1003.5
20260506141139 61 265 1.0 7.0 0.00 0.00 0.00 76 1003.4
20260506140652 61 223 3.0 7.0 0.00 0.00 0.00 75 1003.4
20260506140200 61 240 0.0 7.0 0.00 0.00 0.00 75 1003.4
20260506135648 61 240 0.0 4.0 0.00 0.00 0.00 75 1003.4
20260506135154 61 240 0.0 3.0 0.00 0.00 0.00 75 1003.3
20260506134645 61 240 0.0 7.0 0.00 0.00 0.00 75 1003.4
20260506134156 61 240 1.0 7.0 0.00 0.00 0.00 75 1003.4
20260506133646 61 246 0.0 3.0 0.00 0.00 0.00 75 1003.3
20260506133158 61 248 0.0 5.0 0.00 0.00 0.00 74 1003.3
20260506132649 61 248 1.0 7.0 0.00 0.00 0.00 73 1003.4
20260506132158 61 221 2.0 7.0 0.00 0.00 0.00 73 1003.4
20260506131648 61 227 0.0 5.0 0.00 0.00 0.00 74 1003.3
20260506131141 62 221 1.0 5.0 0.00 0.00 0.00 73 1003.4
20260506130501 62 229 2.0 5.0 0.00 0.00 0.00 72 1003.4
20260506125643 63 233 0.0 5.0 0.00 0.00 0.00 70 1003.3
20260506125157 63 233 1.0 5.0 0.00 0.00 0.00 70 1003.3
20260506124645 64 221 0.0 1.0 0.00 0.00 0.00 72 1003.3
20260506124157 64 221 0.0 1.0 0.00 0.00 0.00 74 1003.3
20260506123646 63 223 0.0 3.0 0.00 0.00 0.00 74 1003.2
20260506123157 63 223 0.0 4.0 0.00 0.00 0.00 73 1003.3
20260506122648 63 223 1.0 4.0 0.00 0.00 0.00 74 1003.3
20260506122156 63 223 0.0 1.0 0.00 0.00 0.00 80 1003.3
20260506121647 62 223 0.0 1.0 0.00 0.00 0.00 80 1003.3
20260506121143 61 223 0.0 1.0 0.00 0.00 0.00 80 1003.3
20260506120504 60 223 0.0 1.0 0.00 0.00 0.00 80 1003.3
20260506115651 59 223 0.0 1.0 0.00 0.00 0.00 80 1003.3
20260506115159 59 223 0.0 3.0 0.00 0.00 0.00 79 1003.4
20260506114502 59 221 0.0 1.0 0.00 0.00 0.00 79 1003.4
20260506114158 59 221 0.0 1.0 0.00 0.00 0.00 78 1003.4
20260506113648 59 221 0.0 3.0 0.00 0.00 0.00 78 1003.4
20260506113139 59 221 0.0 3.0 0.00 0.00 0.00 78 1003.4
20260506112650 59 221 0.0 3.0 0.00 0.00 0.00 78 1003.4
20260506112142 60 221 0.0 2.0 0.00 0.00 0.00 78 1003.4
20260506111652 60 221 0.0 2.0 0.00 0.00 0.00 78 1003.4
20260506111145 60 221 0.0 4.0 0.00 0.00 0.00 79 1003.4
20260506110506 61 221 1.0 4.0 0.00 0.00 0.00 79 1003.4
20260506105647 60 217 0.0 3.0 0.00 0.00 0.00 80 1003.4
20260506105158 60 217 0.0 2.0 0.00 0.00 0.00 81 1003.4
20260506104501 60 217 0.0 2.0 0.00 0.00 0.00 83 1003.4
20260506104200 60 217 0.0 1.0 0.00 0.00 0.00 83 1003.3
20260506103649 60 217 0.0 2.0 0.00 0.00 0.00 83 1003.4
20260506103143 60 217 0.0 3.0 0.00 0.00 0.00 83 1003.4
20260506102652 59 217 0.0 3.0 0.00 0.00 0.00 82 1003.4
20260506102141 59 217 0.0 1.0 0.00 0.00 0.00 83 1003.4
20260506101652 60 217 0.0 1.0 0.00 0.00 0.00 83 1003.4
20260506101144 60 217 0.0 2.0 0.00 0.00 0.00 83 1003.4
20260506100654 60 217 0.0 6.0 0.00 0.00 0.00 83 1003.5
20260506100149 60 217 2.0 8.0 0.00 0.00 0.00 83 1003.5
20260506095655 60 213 1.0 8.0 0.00 0.00 0.00 84 1003.4
20260506095144 60 236 0.0 5.0 0.00 0.00 0.00 86 1003.4
20260506094655 60 238 0.0 5.0 0.00 0.00 0.00 86 1003.4
20260506094144 60 236 0.0 7.0 0.00 0.00 0.00 87 1003.5
20260506093654 59 237 1.0 7.0 0.00 0.00 0.00 88 1003.4
20260506093145 59 252 0.0 6.0 0.00 0.00 0.00 88 1003.5
20260506092658 58 273 0.0 3.0 0.00 0.00 0.00 89 1003.4
20260506092146 58 275 0.0 8.0 0.00 0.00 0.00 89 1003.4
20260506091657 57 224 1.0 8.0 0.00 0.00 0.00 89 1003.4
20260506091147 57 227 1.0 4.0 0.00 0.00 0.00 90 1003.4
20260506090658 57 227 0.0 5.0 0.00 0.00 0.00 90 1003.3
20260506090148 57 227 1.0 5.0 0.00 0.00 0.00 91 1003.4
20260506085144 56 227 0.0 4.0 0.00 0.00 0.00 91 1003.3
20260506084654 56 227 0.0 4.0 0.00 0.00 0.00 91 1003.4
20260506084145 56 227 1.0 4.0 0.00 0.00 0.00 92 1003.4
20260506083655 56 230 1.0 6.0 0.00 0.00 0.00 92 1003.3
20260506083144 57 246 1.0 7.0 0.00 0.00 0.00 92 1003.3
20260506082657 57 228 0.0 4.0 0.00 0.00 0.00 92 1003.2
20260506082146 57 223 0.0 4.0 0.00 0.00 0.00 92 1003.3
20260506081658 57 223 0.0 4.0 0.00 0.00 0.00 93 1003.2
20260506081147 56 223 0.0 4.0 0.00 0.00 0.00 93 1003.2
20260506080659 56 234 0.0 6.0 0.00 0.00 0.00 93 1003.2
20260506080148 56 222 1.0 5.0 0.00 0.00 0.00 93 1003.2
20260506073149 56 238 0.0 3.0 0.00 0.00 0.00 93 1003.2
20260506072703 55 238 0.0 3.0 0.00 0.00 0.00 93 1003.2
20260506072150 55 238 0.0 3.0 0.00 0.00 0.00 93 1003.2
20260506071640 55 238 0.0 3.0 0.00 0.00 0.00 93 1003.2
20260506071154 55 240 0.0 4.0 0.00 0.00 0.00 94 1003.2
20260506070643 55 240 0.0 2.0 0.00 0.00 0.00 94 1003.2
20260506070155 55 240 0.0 1.0 0.00 0.00 0.00 94 1003.3
20260506062151 54 240 0.0 0.0 0.00 0.00 0.00 94 1003.0
20260506061642 54 240 0.0 0.0 0.00 0.00 0.00 94 1002.9
20260506061155 54 240 0.0 1.0 0.00 0.00 0.00 94 1003.0
20260506060644 54 240 0.0 1.0 0.00 0.00 0.00 94 1002.9
20260506060154 54 240 0.0 1.0 0.00 0.00 0.00 94 1002.9
20260506051158 54 240 0.0 0.0 0.00 0.00 0.00 94 1002.8
20260506050648 54 240 0.0 0.0 0.00 0.00 0.00 94 1002.8
20260506050159 54 240 0.0 0.0 0.00 0.00 0.00 94 1002.9
20260506044642 54 240 0.0 1.0 0.00 0.00 0.00 94 1003.0
20260506044154 54 240 0.0 1.0 0.00 0.00 0.00 94 1003.0
20260506043643 54 240 0.0 1.0 0.00 0.00 0.00 94 1003.0
20260506043154 54 240 0.0 2.0 0.00 0.00 0.00 94 1003.0
20260506042645 54 240 0.0 3.0 0.00 0.00 0.00 94 1003.0
20260506042156 54 240 0.0 3.0 0.00 0.00 0.00 94 1003.0
20260506041646 54 240 0.0 1.0 0.00 0.00 0.00 94 1003.0
20260506041157 54 240 0.0 1.0 0.00 0.00 0.00 94 1003.0
20260506040650 54 240 0.0 3.0 0.00 0.00 0.00 94 1003.1
20260506040158 54 240 0.0 4.0 0.00 0.00 0.00 94 1002.9
20260506035639 54 240 0.0 4.0 0.00 0.00 0.00 94 1003.0
20260506035151 54 240 0.0 1.0 0.00 0.00 0.00 94 1002.9
20260506034642 54 240 0.0 1.0 0.00 0.00 0.00 94 1002.8
20260506034154 54 240 0.0 4.0 0.00 0.00 0.00 94 1002.9
20260506033646 54 240 0.0 4.0 0.00 0.00 0.00 94 1003.0
20260506033157 54 240 0.0 4.0 0.00 0.00 0.00 94 1003.0
20260506032650 54 240 0.0 1.0 0.00 0.00 0.00 94 1003.0
20260506032159 54 240 0.0 3.0 0.00 0.00 0.00 94 1002.9
20260506031650 54 240 0.0 3.0 0.00 0.00 0.00 94 1002.9
20260506030649 54 240 0.0 1.0 0.00 0.00 0.00 94 1003.0
20260506030158 54 240 0.0 2.0 0.00 0.00 0.00 94 1002.9
20260506025642 54 240 0.0 3.0 0.00 0.00 0.00 94 1003.0
20260506025154 55 240 0.0 3.0 0.00 0.00 0.00 94 1003.0
20260506024644 55 240 0.0 2.0 0.00 0.00 0.00 94 1002.9
20260506024156 55 240 0.0 0.0 0.00 0.00 0.00 94 1002.9
20260506023645 55 240 0.0 0.0 0.00 0.00 0.00 94 1003.0
20260506023153 55 240 0.0 0.0 0.00 0.00 0.00 94 1003.0
20260506022645 55 240 0.0 0.0 0.00 0.00 0.00 94 1003.0
20260506022155 55 240 0.0 0.0 0.00 0.00 0.00 94 1003.0
20260506021645 55 240 0.0 0.0 0.00 0.00 0.00 94 1003.2
20260506021200 55 240 0.0 0.0 0.00 0.00 0.00 93 1003.2
20260506020648 55 240 0.0 1.0 0.00 0.00 0.00 93 1003.2
20260506020158 55 240 0.0 1.0 0.00 0.00 0.00 93 1003.2
20260506015642 55 240 0.0 1.0 0.00 0.00 0.00 93 1003.3
20260506015153 55 240 0.0 1.0 0.00 0.00 0.00 93 1003.3